Skip Navigation Links
NOAA logo - Click to go to the NOAA homepage
NOAA's National Weather Service
Alaska Aviation Weather Unit
  NWS logo - Click to go to the NWS homepage
Left Navbar Graphic     15 AKDT = 23 GMT

   
NOAA is celebrating 200 years of science, service, and stewardship. Visit the NOAA 200th celebration Web site to learn more.
USA.gov is the U.S. Government's official Web portal to all Federal, state and local government Web resources and services.
Facebook
NWS on Facebook

Important Change Regarding the AAWU Web Presence

 

Over the last several months, the AAWU has been working to navigate its webpages to a nationally supported server. Security, as well as other needs, have necessitated the change.  We have been given an extension for the site changeover while we diligently work at addressing feedback received. As of July 14, 2017, aawu.arh.noaa.gov will be discontinued. The new AAWU web address is weather.gov/aawu. It is now live and will run in-parallel with the old site until it is discontinued on July 14, 2017. Please continue to send any feedback or questions regarding the new webpages to nws.ar.aawu.webauthors@noaa.gov.  Thank you for your patience during this time of transition.
AAWU Home :: Display TAF Add Bookmark
TAF PASI 192327Z 2000/2024  19007KT P6SM -SHRA BKN035 OVC060
     FM200800 21010KT 6SM -SHRA BKN025 OVC050
     FM201400 23008KT P6SM -SHRA SCT030 BKN050
     FM202000 19006KT 6SM -SHRA OVC040=

7896
FTAK31 PAJN 192327
TAFAKW
TAF
METAR PASI 191753Z 00000KT 10SM BKN050 07/04 A2893=

METAR PASI 191853Z 08003KT 10SM BKN035 OVC046 08/04 A2895=

METAR PASI 191953Z 15003KT 10SM BKN035 BKN046 08/04 A2897=

METAR PASI 192053Z 18005KT 10SM BKN031 09/04 A2899=

METAR PASI 192153Z 19006KT 10SM BKN035 OVC045 09/05 A2900=

METAR PASI 192253Z 18003KT 10SM BKN041 10/06 A2900=


NOAA's National Weather Service
Alaska Aviation Weather Unit
6930 Sand Lake Road
Anchorage, AK 99502-1845
Disclaimer
Credits
Glossary
Privacy Policy
About Us
Career Opportunities
Contact AAWU Internet Services Site last modified: April, 17th 2012